{"data":{"norad_id":65693,"epoch":"2026-05-24T22:52:53.423040Z","epoch_age_seconds":72220,"freshness":"FRESH","line1":"1 65693U 25212T   26144.95339610  .00011217  00000+0  39014-3 0  9995","line2":"2 65693  53.1596 341.1781 0001134  85.0361 275.0770 15.30211613 39066","mean_motion":15.30211613,"eccentricity":0.0001134,"inclination_deg":53.1596,"raan_deg":341.1781,"arg_perigee_deg":85.0361,"mean_anomaly_deg":275.077,"bstar":0.00039014,"rev_number":3906,"period_min":94.104631527195,"perigee_km":474.40322912124,"apogee_km":475.9575615065,"semimajor_km":6853.3173953139,"source":"CELESTRAK","updated_at":"2026-05-25T13:38:20.897314Z"}}